Torna al catalogo

DELTA 1 DEB

AttivoLEO
NORAD 14510·DEBRIS·🇺🇸 United States

Lanciato Jul 29, 1976 da Vandenberg Space Force Base

Loading…

Prossimi Passaggi (prossime 24 ore)

TLE

AggiornatoSource: Space-Track

Epoca: Sep 14, 2026, 07:14 UTC

1 14510U 76077ER  26257.30179091  .00000142  00000-0  21194-2 0  9996
2 14510 102.4326 179.7981 0222575  62.1473  87.0243 11.99461097938437

Traccia DELTA 1 DEB in tempo reale con AllMySat

Download on the App Store